Weather History for KBIE - November, 2012

Change the Weather History Date:

Saturday, November 10, 2012

  Actual Average Record
Temperature  
Mean Temperature 61 °F -  
Max Temperature 76 °F 54 °F 76 °F (2012)
Min Temperature 45 °F 32 °F 14 °F (1950)
Degree Days  
Heating Degree Days 4    
Growing Degree Days 11 (Base 50)    
Moisture  
Dew Point 52 °F    
Average Humidity 58    
Maximum Humidity 86    
Minimum Humidity 40    
Precipitation  
Precipitation 0.41 in - - ()
Sea Level Pressure  
Sea Level Pressure 29.59 in    
Wind  
Wind Speed 20 mph (South)    
Max Wind Speed 33 mph    
Max Gust Speed 47 mph    
Visibility 10 miles    
Events Rain , Thunderstorm    
Averages and records for this station are not official NWS values.
T = Trace of Precipitation, MM = Missing Value Source: NWS Daily Summary

Daily Weather History Graph

Daily Weather History Graph

Search for Another Location

Airport or City:

Trip Planner

Search our weather history database for the weather conditions in past years. The results will help you decide how hot, cold, wet, or windy it might be!

Date:

Astronomy

Nov. 10, 2012 Rise Set
Actual Time 7:07 AM CST 5:13 PM CST
Civil Twilight 6:38 AM CST 5:42 PM CST
Nautical Twilight 6:06 AM CST 6:15 PM CST
Astronomical Twilight 5:34 AM CST 6:47 PM CST
Moon 3:13 AM CST (11/10) 3:01 PM CST (11/10)
Length of Visible Light 11h 03m
Length of Day
10h 06m
Waning Crescent, 14% of the Moon is Illuminated
Nov 10
Waning Crescent
Nov 13
New
Nov 20
First Quarter
Nov 28
Full
Dec 6
Last Quarter

Hourly Weather History & Observations

Time (CST) Temp. Windchill Dew Point Humidity Pressure Visibility Wind Dir Wind Speed Gust Speed Precip Events Conditions
12:15 AM 66.4 °F - 55.4 °F 68% 29.63 in 10.0 mi South 16.1 mph 21.9 mph N/A   Clear
12:35 AM 67.1 °F - 55.4 °F 66% 29.62 in 10.0 mi South 18.4 mph 24.2 mph N/A   Clear
12:55 AM 67.1 °F - 55.0 °F 65% 29.62 in 10.0 mi South 16.1 mph 24.2 mph N/A   Clear
1:15 AM 66.7 °F - 54.7 °F 65% 29.61 in 10.0 mi South 16.1 mph - N/A   Clear
1:35 AM 66.6 °F - 54.5 °F 65% 29.61 in 10.0 mi South 15.0 mph 24.2 mph N/A   Clear
1:55 AM 66.6 °F - 54.0 °F 64% 29.61 in 10.0 mi South 15.0 mph - N/A   Clear
2:15 AM 66.4 °F - 53.6 °F 63% 29.61 in 10.0 mi South 16.1 mph - N/A   Clear
2:35 AM 66.4 °F - 53.1 °F 62% 29.61 in 10.0 mi South 16.1 mph 23.0 mph N/A   Clear
2:55 AM 66.7 °F - 52.7 °F 61% 29.61 in 10.0 mi South 18.4 mph 25.3 mph N/A   Clear
3:15 AM 67.1 °F - 52.3 °F 59% 29.60 in 10.0 mi South 19.6 mph 26.5 mph N/A   Clear
3:35 AM 67.1 °F - 52.2 °F 59% 29.59 in 10.0 mi South 19.6 mph 25.3 mph N/A   Clear
3:55 AM 66.6 °F - 52.0 °F 59% 29.60 in 10.0 mi South 17.3 mph 24.2 mph N/A   Clear
4:15 AM 66.4 °F - 52.0 °F 60% 29.60 in 10.0 mi South 18.4 mph 24.2 mph N/A   Clear
4:35 AM 66.2 °F - 51.8 °F 60% 29.60 in 10.0 mi South 17.3 mph 24.2 mph N/A   Clear
4:55 AM 65.8 °F - 51.6 °F 60% 29.60 in 10.0 mi South 17.3 mph 25.3 mph N/A   Clear
5:15 AM 65.5 °F - 51.3 °F 60% 29.60 in 10.0 mi South 18.4 mph - N/A   Clear
5:35 AM 65.7 °F - 51.1 °F 59% 29.61 in 10.0 mi South 19.6 mph 27.6 mph N/A   Clear
5:55 AM 65.7 °F - 50.9 °F 59% 29.61 in 10.0 mi SSW 18.4 mph 25.3 mph N/A   Clear
6:15 AM 66.2 °F - 50.0 °F 56% 29.61 in 10.0 mi South 18.4 mph 26.5 mph N/A   Clear
6:35 AM 65.1 °F - 50.5 °F 59% 29.61 in 10.0 mi South 16.1 mph 23.0 mph N/A   Clear
6:55 AM 64.4 °F - 50.5 °F 61% 29.62 in 10.0 mi South 13.8 mph 26.5 mph N/A   Clear
7:15 AM 63.9 °F - 50.2 °F 61% 29.63 in 10.0 mi South 15.0 mph 20.7 mph N/A   Clear
7:35 AM 63.7 °F - 50.4 °F 62% 29.63 in 10.0 mi SSW 13.8 mph 20.7 mph N/A   Clear
7:55 AM 64.6 °F - 50.5 °F 60% 29.63 in 10.0 mi SSW 17.3 mph 24.2 mph N/A   Clear
8:15 AM 65.5 °F - 50.9 °F 59% 29.64 in 10.0 mi South 19.6 mph 24.2 mph N/A   Clear
8:35 AM 66.9 °F - 51.1 °F 57% 29.64 in 10.0 mi South 19.6 mph 25.3 mph N/A   Clear
8:55 AM 68.0 °F - 51.3 °F 55% 29.64 in 10.0 mi South 19.6 mph 25.3 mph N/A   Clear
9:15 AM 69.1 °F - 50.9 °F 52% 29.64 in 10.0 mi South 20.7 mph 31.1 mph N/A   Clear
9:35 AM 70.5 °F - 50.5 °F 49% 29.63 in 10.0 mi SSW 23.0 mph 33.4 mph N/A   Clear
9:55 AM 71.6 °F - 50.5 °F 47% 29.63 in 10.0 mi SSW 27.6 mph 35.7 mph N/A   Clear
10:15 AM 70.3 °F - 51.1 °F 50% 29.63 in 10.0 mi SSW 20.7 mph 32.2 mph N/A   Clear
10:35 AM 72.0 °F - 51.1 °F 48% 29.63 in 10.0 mi South 21.9 mph 33.4 mph N/A   Clear
10:55 AM 73.0 °F - 51.4 °F 47% 29.62 in 10.0 mi South 24.2 mph 29.9 mph N/A   Clear
11:15 AM 73.4 °F - 51.4 °F 46% 29.61 in 10.0 mi South 27.6 mph 35.7 mph N/A   Scattered Clouds
11:35 AM 75.0 °F - 51.4 °F 44% 29.60 in 10.0 mi SSW 20.7 mph 34.5 mph N/A   Scattered Clouds
11:55 AM 75.4 °F - 51.1 °F 42% 29.60 in 10.0 mi South 26.5 mph 36.8 mph N/A   Clear
12:15 PM 75.9 °F - 51.1 °F 42% 29.59 in 10.0 mi South 28.8 mph 36.8 mph N/A   Clear
12:35 PM 76.5 °F - 50.9 °F 41% 29.58 in 10.0 mi South 27.6 mph 32.2 mph N/A   Clear
12:55 PM 76.1 °F - 50.9 °F 41% 29.57 in 10.0 mi South 29.9 mph 36.8 mph N/A   Clear
1:15 PM 75.7 °F - 51.3 °F 42% 29.56 in 10.0 mi South 25.3 mph 34.5 mph N/A   Scattered Clouds
1:35 PM 76.5 °F - 50.7 °F 40% 29.55 in 7.0 mi SSW 27.6 mph 40.3 mph N/A   Scattered Clouds
1:55 PM 75.9 °F - 51.3 °F 42% 29.54 in 10.0 mi South 28.8 mph 38.0 mph N/A   Clear
2:15 PM 75.2 °F - 51.8 °F 44% 29.54 in 10.0 mi South 33.4 mph 39.1 mph N/A   Clear
2:35 PM 74.8 °F - 51.8 °F 44% 29.53 in 10.0 mi South 32.2 mph 39.1 mph N/A   Clear
2:55 PM 74.7 °F - 51.8 °F 45% 29.53 in 10.0 mi South 29.9 mph 40.3 mph N/A   Clear
3:15 PM 75.4 °F - 51.1 °F 42% 29.52 in 10.0 mi South 28.8 mph 40.3 mph N/A   Clear
3:35 PM 74.7 °F - 51.4 °F 44% 29.53 in 10.0 mi South 21.9 mph 38.0 mph N/A   Clear
3:55 PM 74.3 °F - 51.8 °F 45% 29.53 in 10.0 mi South 27.6 mph 34.5 mph N/A   Clear
4:15 PM 73.0 °F - 51.8 °F 47% 29.53 in 10.0 mi South 29.9 mph 36.8 mph N/A   Scattered Clouds
4:35 PM 72.5 °F - 52.3 °F 49% 29.53 in 10.0 mi South 23.0 mph 32.2 mph N/A   Scattered Clouds
4:55 PM 71.6 °F - 52.2 °F 50% 29.53 in 10.0 mi South 20.7 mph 29.9 mph N/A   Scattered Clouds
5:15 PM 70.9 °F - 52.5 °F 52% 29.53 in 10.0 mi South 20.7 mph 31.1 mph N/A   Clear
5:35 PM 70.2 °F - 52.7 °F 54% 29.53 in 10.0 mi South 24.2 mph 31.1 mph N/A   Clear
5:55 PM 70.0 °F - 52.7 °F 54% 29.53 in 10.0 mi South 25.3 mph 34.5 mph N/A   Scattered Clouds
6:15 PM 69.4 °F - 52.7 °F 55% 29.53 in 10.0 mi South 25.3 mph 34.5 mph N/A   Clear
6:35 PM 69.3 °F - 52.7 °F 56% 29.51 in 10.0 mi South 29.9 mph 38.0 mph N/A   Clear
6:55 PM 69.3 °F - 52.7 °F 56% 29.50 in 10.0 mi South 28.8 mph 36.8 mph N/A   Clear
7:15 PM 69.4 °F - 52.2 °F 54% 29.51 in 10.0 mi South 26.5 mph 34.5 mph N/A   Clear
7:35 PM 69.8 °F - 51.8 °F 53% 29.50 in 10.0 mi South 29.9 mph 39.1 mph N/A   Clear
7:55 PM 69.8 °F - 51.4 °F 52% 29.51 in 10.0 mi South 28.8 mph 46.0 mph N/A Thunderstorm Scattered Clouds
8:15 PM 69.4 °F - 52.5 °F 55% 29.55 in 10.0 mi SSW 25.3 mph 35.7 mph N/A Rain Light Rain
8:35 PM 67.5 °F - 54.0 °F 62% 29.58 in 10.0 mi SSW 28.8 mph 47.2 mph N/A Rain , Thunderstorm Light Thunderstorms and Rain
8:55 PM 56.1 °F - 51.8 °F 85% 29.57 in 4.0 mi South 18.4 mph 24.2 mph 0.32 in Rain , Thunderstorm Heavy Thunderstorms and Rain
9:15 PM 59.2 °F - 54.9 °F 86% 29.51 in 7.0 mi SSE 20.7 mph 29.9 mph 0.04 in Rain , Thunderstorm Light Thunderstorms and Rain
9:35 PM 60.4 °F - 55.6 °F 84% 29.58 in 10.0 mi SW 12.7 mph - 0.05 in Rain Light Rain
9:55 PM 60.8 °F - 53.6 °F 77% 29.64 in 5.0 mi SW 23.0 mph 35.7 mph N/A Rain Rain
10:15 PM 58.6 °F - 53.2 °F 82% 29.62 in 7.0 mi South 10.4 mph - 0.02 in Rain , Thunderstorm Thunderstorms and Rain
10:35 PM 57.9 °F - 52.9 °F 83% 29.61 in 10.0 mi SW 8.1 mph - 0.04 in Rain , Thunderstorm Light Thunderstorms and Rain
10:55 PM 57.6 °F - 53.1 °F 85% 29.64 in 10.0 mi WSW 9.2 mph - 0.04 in   Overcast
11:15 PM 48.9 °F - 43.9 °F 83% 29.65 in 10.0 mi NW 20.7 mph 26.5 mph N/A Thunderstorm Unknown
11:35 PM 46.2 °F 37.9 °F 41.7 °F 84% 29.65 in 10.0 mi NNW 24.2 mph 27.6 mph N/A Rain Light Rain
11:55 PM 45.0 °F 37.9 °F 40.3 °F 84% 29.66 in 10.0 mi NW 16.1 mph 23.0 mph N/A Thunderstorm Overcast